Weather History for LTAR - October, 2013

Change the Weather History Date:

Saturday, October 12, 2013

  Actual Average Record
Temperature  
Mean Temperature 56 °F -  
Max Temperature 73 °F 59 °F - ()
Min Temperature 38 °F 36 °F - ()
Degree Days  
Heating Degree Days 10    
Growing Degree Days 6 (Base 50)    
Moisture  
Dew Point 28 °F    
Average Humidity 40    
Maximum Humidity 66    
Minimum Humidity 11    
Precipitation  
Precipitation 0.00 in 0.05 in - ()
Sea Level Pressure  
Sea Level Pressure 30.26 in    
Wind  
Wind Speed 8 mph ()    
Max Wind Speed 16 mph    
Max Gust Speed -    
Visibility 9.0 miles    
Events      
T = Trace of Precipitation, MM = Missing Value Source: Averaged Metar Reports

Daily Weather History Graph

Daily Weather History Graph

Search for Another Location

Airport or City:

Trip Planner

Search our weather history database for the weather conditions in past years. The results will help you decide how hot, cold, wet, or windy it might be!

Date:

Astronomy

Oct. 12, 2013 Rise Set
Actual Time 6:39 AM EEST 5:57 PM EEST
Civil Twilight 6:12 AM EEST 6:24 PM EEST
Nautical Twilight 5:41 AM EEST 6:55 PM EEST
Astronomical Twilight 5:09 AM EEST 7:27 PM EEST
Moon 1:50 PM EEST (10/12) No Moon Set
Length of Visible Light 12h 12m
Length of Day
11h 18m
First Quarter, 55% of the Moon is Illuminated
Oct 12
First Quarter
Oct 19
Full
Oct 27
Last Quarter
Nov 3
New
Nov 10
First Quarter

Hourly Weather History & Observations

Time (EEST) Temp. Windchill Dew Point Humidity Pressure Visibility Wind Dir Wind Speed Gust Speed Precip Events Conditions
3:50 AM 44.6 °F 41.4 °F 32.0 °F 61% 30.27 in - NNW 5.8 mph - N/A   Clear
4:50 AM 42.8 °F 38.6 °F 30.2 °F 61% 30.27 in - NW 6.9 mph - N/A   Clear
5:50 AM 42.8 °F 40.1 °F 30.2 °F 61% 30.27 in - NNW 4.6 mph - N/A   Clear
6:50 AM 41.0 °F 39.0 °F 26.6 °F 57% 30.27 in - North 3.5 mph - N/A   Clear
7:50 AM 46.4 °F 41.9 °F 24.8 °F 43% 30.30 in - NNW 9.2 mph - N/A   Clear
8:50 AM 51.8 °F - 23.0 °F 33% 30.30 in - NNW 10.4 mph - N/A   Clear
9:00 AM 46 °F - 32 °F 45%  in 9 mi Calm Calm - -  
9:50 AM 55.4 °F - 21.2 °F 26% 30.30 in - North 10.4 mph - N/A   Clear
10:50 AM 60.8 °F - 15.8 °F 17% 30.27 in - North 9.2 mph - N/A   Clear
11:50 AM 64.4 °F - 12.2 °F 13% 30.27 in - NNE 13.8 mph - N/A   Clear
12:50 PM 64.4 °F - 21.2 °F 19% 30.24 in - NNE 12.7 mph - N/A   Clear
1:50 PM 64.4 °F - 24.8 °F 22% 30.24 in - North 13.8 mph - N/A   Clear
2:50 PM 64.4 °F - 24.8 °F 22% 30.24 in - NNE 13.8 mph - N/A   Clear
3:00 PM 71 °F - 29 °F 11%  in 9 mi East 4.6 mph - -  
3:50 PM 62.6 °F - 26.6 °F 26% 30.24 in - NNE 15.0 mph - N/A   Clear
4:50 PM 60.8 °F - 26.6 °F 27% 30.24 in - North 16.1 mph - N/A   Clear
5:50 PM 55.4 °F - 30.2 °F 38% 30.24 in - North 16.1 mph - N/A   Clear
6:50 PM 51.8 °F - 32.0 °F 47% 30.24 in - North 9.2 mph - N/A   Clear
7:50 PM 48.2 °F - 33.8 °F 58% 30.24 in - NNW 16.1 mph - N/A   Clear
8:50 PM 46.4 °F 42.4 °F 35.6 °F 66% 30.24 in - NE 8.1 mph - N/A   Clear
9:00 PM 55 °F - 37 °F 39%  in 9 mi NE 4.6 mph - -  
9:50 PM 46.4 °F 41.5 °F 33.8 °F 62% 30.24 in - North 10.4 mph - N/A   Clear
10:50 PM 46.4 °F 40.7 °F 32.0 °F 57% 30.24 in - North 12.7 mph - N/A   Clear
11:50 PM 44.6 °F 39.7 °F 30.2 °F 57% 30.24 in - NNE 9.2 mph - N/A   Clear